EW5238 Weather Reports


Display with metric or nautical units.
time (UTC)temp
F
wind
direction
speed
MPH
gust
MPH
rain 1hr
in
rain 24hr
in
rain mn
in
humidity
%
barometer
mb
20190322115007 52 234 0.0 0.0 0.00 0.00 0.00 83 1019.4
20190322114507 52 234 0.0 0.0 0.00 0.00 0.00 83 1019.3
20190322114006 52 234 0.0 0.0 0.00 0.00 0.00 82 1019.3
20190322113505 52 234 0.0 0.0 0.00 0.00 0.00 84 1019.2
20190322113005 52 234 0.0 0.0 0.00 0.00 0.00 87 1019.1
20190322112503 53 234 0.0 0.0 0.00 0.00 0.00 87 1019.1
20190322112003 53 234 0.0 0.0 0.00 0.00 0.00 84 1019.0
20190322111504 54 234 0.0 0.0 0.00 0.00 0.00 78 1018.9
20190322111003 55 234 0.0 0.0 0.00 0.00 0.00 76 1018.9
20190322110503 55 247 0.0 1.0 0.00 0.00 0.00 75 1018.9
20190322110005 54 249 0.0 1.0 0.00 0.00 0.00 77 1019.0
20190322105503 54 254 0.0 0.0 0.00 0.00 0.00 78 1018.9
20190322105004 53 254 0.0 0.0 0.00 0.00 0.00 80 1019.0
20190322104503 53 254 0.0 0.0 0.00 0.00 0.00 86 1019.0
20190322104005 53 254 0.0 0.0 0.00 0.00 0.00 87 1018.9
20190322103504 54 254 0.0 0.0 0.00 0.00 0.00 86 1018.8
20190322103006 54 254 0.0 0.0 0.00 0.00 0.00 87 1018.9
20190322102503 54 254 0.0 2.0 0.00 0.00 0.00 87 1018.9
20190322102004 55 254 1.0 2.0 0.00 0.00 0.00 87 1018.9
20190322101503 55 252 1.0 3.0 0.00 0.00 0.00 87 1019.0
20190322101004 55 255 1.0 3.0 0.00 0.00 0.00 86 1019.0
20190322100503 55 231 0.0 1.0 0.00 0.00 0.00 87 1019.0
20190322100008 55 252 0.0 2.0 0.00 0.00 0.00 86 1019.0
20190322095504 55 245 0.0 2.0 0.00 0.00 0.00 87 1019.0
20190322095003 55 245 0.0 1.0 0.00 0.00 0.00 87 1019.0
20190322094504 55 248 0.0 1.0 0.00 0.00 0.00 87 1019.1
20190322094005 55 236 0.0 2.0 0.00 0.00 0.00 87 1019.0
20190322093503 55 232 0.0 2.0 0.00 0.00 0.00 87 1019.0
20190322093007 55 240 0.0 2.0 0.00 0.00 0.00 87 1019.0
20190322092508 55 243 0.0 2.0 0.00 0.00 0.00 88 1019.0
20190322092005 55 250 0.0 0.0 0.00 0.00 0.00 89 1019.0
20190322091504 55 233 0.0 4.0 0.00 0.00 0.00 88 1019.1
20190322091005 55 233 0.0 4.0 0.00 0.00 0.00 88 1019.0
20190322090504 55 235 1.0 4.0 0.00 0.00 0.00 88 1019.1
20190322090002 55 254 1.0 4.0 0.00 0.00 0.00 88 1019.2
20190322085502 55 221 0.0 4.0 0.00 0.00 0.00 89 1019.2
20190322085000 55 223 0.0 2.0 0.00 0.00 0.00 89 1019.3
20190322084459 55 221 1.0 4.0 0.00 0.00 0.00 89 1019.3
20190322083959 55 207 1.0 4.0 0.00 0.00 0.00 89 1019.3
20190322083459 55 204 2.0 6.0 0.00 0.00 0.00 89 1019.4
20190322082958 55 217 3.0 6.0 0.00 0.00 0.00 89 1019.4
20190322082454 55 238 3.0 6.0 0.00 0.00 0.00 89 1019.5
20190322081956 55 228 3.0 6.0 0.00 0.00 0.00 89 1019.6
20190322081454 55 241 3.0 7.0 0.00 0.00 0.00 89 1019.6
20190322080956 55 243 3.0 7.0 0.00 0.00 0.00 89 1019.5
20190322080455 55 241 3.0 6.0 0.00 0.00 0.00 88 1019.6
20190322075953 55 233 3.0 6.0 0.00 0.00 0.00 88 1019.6
20190322075453 55 239 2.0 6.0 0.00 0.00 0.00 88 1019.6
20190322074955 54 238 3.0 6.0 0.00 0.00 0.00 88 1019.6
20190322074455 54 225 2.0 6.0 0.00 0.00 0.00 88 1019.6
20190322073955 54 220 1.0 4.0 0.00 0.00 0.00 87 1019.5
20190322073454 54 228 2.0 5.0 0.00 0.00 0.00 87 1019.5
20190322072953 55 221 3.0 6.0 0.00 0.00 0.00 87 1019.5
20190322072452 55 236 3.0 6.0 0.00 0.00 0.00 87 1019.6
20190322071954 55 234 3.0 5.0 0.00 0.00 0.00 87 1019.7
20190322071455 55 231 3.0 6.0 0.00 0.00 0.00 87 1019.6
20190322070953 55 250 3.0 6.0 0.00 0.00 0.00 86 1019.6
20190322070452 55 239 3.0 6.0 0.00 0.00 0.00 85 1019.7
20190322065954 54 227 3.0 7.0 0.00 0.00 0.00 85 1019.7
20190322065453 55 224 4.0 7.0 0.00 0.00 0.00 84 1019.6
20190322064952 54 207 3.0 6.0 0.00 0.00 0.00 84 1019.6
20190322064452 54 220 3.0 7.0 0.00 0.00 0.00 83 1019.5
20190322063948 54 231 4.0 7.0 0.00 0.00 0.00 81 1019.5
20190322063450 55 213 4.0 7.0 0.00 0.00 0.00 80 1019.5
20190322062949 54 241 3.0 7.0 0.00 0.00 0.00 79 1019.4
20190322062450 54 242 2.0 5.0 0.00 0.00 0.00 76 1019.3
20190322061949 53 221 1.0 4.0 0.00 0.00 0.00 73 1019.3
20190322061449 53 214 1.0 3.0 0.00 0.00 0.00 68 1019.3
20190322060950 53 164 2.0 4.0 0.00 0.00 0.00 67 1019.3
20190322060450 52 212 1.0 4.0 0.00 0.00 0.00 68 1019.3
20190322055950 52 199 0.0 3.0 0.00 0.00 0.00 67 1019.3
20190322055450 51 276 0.0 0.0 0.00 0.00 0.00 69 1019.3
20190322054946 51 276 0.0 0.0 0.00 0.00 0.00 71 1019.3
20190322054450 50 276 0.0 0.0 0.00 0.00 0.00 71 1019.3
20190322053948 51 276 0.0 0.0 0.00 0.00 0.00 70 1019.3
20190322053446 51 276 0.0 0.0 0.00 0.00 0.00 70 1019.4
20190322052946 52 276 0.0 0.0 0.00 0.00 0.00 66 1019.5
20190322052448 52 276 0.0 0.0 0.00 0.00 0.00 66 1019.5
20190322051948 52 276 0.0 0.0 0.00 0.00 0.00 67 1019.5
20190322051448 52 276 0.0 0.0 0.00 0.00 0.00 68 1019.6
20190322050951 53 276 0.0 0.0 0.00 0.00 0.00 71 1019.6
20190322050446 53 194 0.0 0.0 0.00 0.00 0.00 66 1019.5
20190322045943 53 194 0.0 0.0 0.00 0.00 0.00 64 1019.5
20190322045441 53 194 0.0 0.0 0.00 0.00 0.00 64 1019.5
20190322044941 53 194 0.0 0.0 0.00 0.00 0.00 66 1019.6
20190322044442 53 194 0.0 0.0 0.00 0.00 0.00 65 1019.6
20190322043942 53 194 0.0 0.0 0.00 0.00 0.00 65 1019.6
20190322043442 53 194 0.0 0.0 0.00 0.00 0.00 65 1019.6
20190322042942 54 194 0.0 0.0 0.00 0.00 0.00 65 1019.6
20190322042441 55 194 0.0 0.0 0.00 0.00 0.00 61 1019.7
20190322041936 56 194 0.0 0.0 0.00 0.00 0.00 59 1019.6
20190322041438 56 194 0.0 0.0 0.00 0.00 0.00 58 1019.6
20190322040938 56 194 0.0 0.0 0.00 0.00 0.00 56 1019.6
20190322040436 55 194 0.0 0.0 0.00 0.00 0.00 59 1019.6
20190322035939 54 194 0.0 0.0 0.00 0.00 0.00 62 1019.6
20190322035438 54 194 0.0 0.0 0.00 0.00 0.00 62 1019.6
20190322034936 54 194 0.0 0.0 0.00 0.00 0.00 63 1019.6
20190322034438 54 194 0.0 0.0 0.00 0.00 0.00 62 1019.6
20190322033936 55 194 0.0 0.0 0.00 0.00 0.00 61 1019.5
20190322033438 55 194 0.0 0.0 0.00 0.00 0.00 58 1019.5
20190322032939 56 194 0.0 0.0 0.00 0.00 0.00 54 1019.6
20190322032436 57 194 0.0 0.0 0.00 0.00 0.00 53 1019.6
20190322031938 57 194 0.0 0.0 0.00 0.00 0.00 55 1019.6
20190322031439 58 194 0.0 0.0 0.00 0.00 0.00 54 1019.6
20190322030937 58 194 0.0 0.0 0.00 0.00 0.00 55 1019.5
20190322030439 59 194 0.0 0.0 0.00 0.00 0.00 55 1019.5
20190322025932 60 194 0.0 1.0 0.00 0.00 0.00 51 1019.4
20190322025431 61 214 0.0 1.0 0.00 0.00 0.00 44 1019.4
20190322024931 60 226 0.0 0.0 0.00 0.00 0.00 46 1019.3
20190322024434 60 209 0.0 0.0 0.00 0.00 0.00 47 1019.4
20190322023931 61 209 0.0 0.0 0.00 0.00 0.00 46 1019.4
20190322023431 61 209 0.0 1.0 0.00 0.00 0.00 45 1019.4
20190322022931 61 209 0.0 1.0 0.00 0.00 0.00 44 1019.3
20190322022430 60 249 0.0 0.0 0.00 0.00 0.00 49 1019.3
20190322021930 60 87 0.0 0.0 0.00 0.00 0.00 50 1019.3
20190322021431 61 87 0.0 0.0 0.00 0.00 0.00 53 1019.2
20190322020930 62 121 1.0 3.0 0.00 0.00 0.00 48 1019.1
20190322020426 63 121 1.0 3.0 0.00 0.00 0.00 44 1019.0
20190322015929 62 229 0.0 0.0 0.00 0.00 0.00 45 1019.0
20190322015428 63 139 0.0 0.0 0.00 0.00 0.00 44 1018.9
20190322014927 65 141 0.0 0.0 0.00 0.00 0.00 45 1018.9
20190322014428 65 217 0.0 0.0 0.00 0.00 0.00 38 1018.8
20190322013928 65 160 0.0 0.0 0.00 0.00 0.00 36 1018.7
20190322013426 65 160 0.0 0.0 0.00 0.00 0.00 36 1018.6
20190322012926 65 160 0.0 1.0 0.00 0.00 0.00 37 1018.6
20190322012428 66 160 1.0 2.0 0.00 0.00 0.00 37 1018.6
20190322011926 66 161 1.0 2.0 0.00 0.00 0.00 36 1018.5
20190322011426 66 150 0.0 0.0 0.00 0.00 0.00 36 1018.5
20190322010925 66 150 0.0 0.0 0.00 0.00 0.00 35 1018.5
20190322010424 66 150 0.0 0.0 0.00 0.00 0.00 35 1018.6
20190322005926 66 150 0.0 0.0 0.00 0.00 0.00 35 1018.5
20190322005424 66 150 0.0 0.0 0.00 0.00 0.00 35 1018.4
20190322004928 67 150 0.0 0.0 0.00 0.00 0.00 34 1018.5
20190322004424 67 150 0.0 0.0 0.00 0.00 0.00 34 1018.5
20190322003925 68 150 0.0 0.0 0.00 0.00 0.00 33 1018.5
20190322003426 68 150 0.0 0.0 0.00 0.00 0.00 33 1018.5
20190322002926 69 150 0.0 0.0 0.00 0.00 0.00 33 1018.4
20190322002422 70 150 0.0 0.0 0.00 0.00 0.00 33 1018.4
20190322001923 71 150 0.0 0.0 0.00 0.00 0.00 32 1018.3
20190322001422 72 150 0.0 0.0 0.00 0.00 0.00 31 1018.3
20190322000923 73 150 0.0 0.0 0.00 0.00 0.00 30 1018.4
20190322000422 73 150 0.0 0.0 0.00 0.00 0.00 29 1018.4
20190321235924 74 150 0.0 0.0 0.00 0.00 0.00 28 1018.4
20190321235422 75 150 0.0 0.0 0.00 0.00 0.00 26 1018.4
20190321234924 76 150 0.0 0.0 0.00 0.00 0.00 25 1018.5
20190321234424 77 150 0.0 0.0 0.00 0.00 0.00 28 1018.4
20190321233921 77 6 0.0 0.0 0.00 0.00 0.00 28 1018.5
20190321233421 76 6 0.0 0.0 0.00 0.00 0.00 26 1018.5
20190321232924 76 6 0.0 1.0 0.00 0.00 0.00 26 1018.5
20190321232422 76 41 0.0 1.0 0.00 0.00 0.00 29 1018.5
20190321231922 76 73 0.0 1.0 0.00 0.00 0.00 31 1018.4
20190321231422 75 73 0.0 1.0 0.00 0.00 0.00 28 1018.4
20190321230919 76 83 0.0 3.0 0.00 0.00 0.00 30 1018.4
20190321230418 76 43 0.0 4.0 0.00 0.00 0.00 29 1018.4
20190321225920 76 49 0.0 4.0 0.00 0.00 0.00 28 1018.4
20190321225418 76 71 0.0 4.0 0.00 0.00 0.00 30 1018.4
20190321224920 76 23 0.0 1.0 0.00 0.00 0.00 29 1018.4
20190321224416 76 344 0.0 4.0 0.00 0.00 0.00 27 1018.4
20190321223918 76 1 1.0 4.0 0.00 0.00 0.00 29 1018.5
20190321223418 76 349 1.0 4.0 0.00 0.00 0.00 29 1018.5
20190321222914 75 344 2.0 6.0 0.00 0.00 0.00 28 1018.5
20190321222415 75 354 2.0 6.0 0.00 0.00 0.00 30 1018.5
20190321221914 75 336 1.0 5.0 0.00 0.00 0.00 27 1018.6
20190321221415 75 344 1.0 5.0 0.00 0.00 0.00 28 1018.6
20190321220915 75 23 1.0 5.0 0.00 0.00 0.00 29 1018.7
20190321220414 75 347 1.0 6.0 0.00 0.00 0.00 29 1018.7
20190321215916 75 344 2.0 6.0 0.00 0.00 0.00 28 1018.8
20190321215417 75 120 1.0 5.0 0.00 0.00 0.00 26 1018.8
20190321214914 76 334 0.0 4.0 0.00 0.00 0.00 28 1018.9
20190321214415 76 345 2.0 7.0 0.00 0.00 0.00 28 1019.0
20190321213915 75 57 2.0 7.0 0.00 0.00 0.00 28 1019.0
20190321213416 75 23 2.0 6.0 0.00 0.00 0.00 31 1019.0
20190321212915 75 356 1.0 5.0 0.00 0.00 0.00 28 1019.1
20190321212415 76 323 1.0 5.0 0.00 0.00 0.00 28 1019.2
20190321211916 76 333 1.0 4.0 0.00 0.00 0.00 27 1019.3
20190321211413 76 82 0.0 4.0 0.00 0.00 0.00 29 1019.4
20190321210913 75 8 2.0 6.0 0.00 0.00 0.00 28 1019.5
20190321210413 75 262 2.0 6.0 0.00 0.00 0.00 25 1019.5
20190321205913 76 324 1.0 5.0 0.00 0.00 0.00 28 1019.5
20190321205412 76 62 1.0 7.0 0.00 0.00 0.00 32 1019.5
20190321204914 75 349 1.0 7.0 0.00 0.00 0.00 28 1019.6
20190321204414 74 351 1.0 4.0 0.00 0.00 0.00 26 1019.6
20190321203910 74 316 2.0 12.0 0.00 0.00 0.00 26 1019.7
20190321203410 75 314 2.0 12.0 0.00 0.00 0.00 31 1019.8
20190321202911 75 70 1.0 5.0 0.00 0.00 0.00 29 1019.9
20190321202410 75 75 1.0 5.0 0.00 0.00 0.00 29 1020.0
20190321201911 75 313 1.0 5.0 0.00 0.00 0.00 30 1020.1
20190321201411 75 6 1.0 6.0 0.00 0.00 0.00 31 1020.2
20190321200910 75 53 1.0 7.0 0.00 0.00 0.00 28 1020.2
20190321200411 74 314 1.0 7.0 0.00 0.00 0.00 30 1020.2
20190321195910 74 323 1.0 6.0 0.00 0.00 0.00 27 1020.3
20190321195423 74 326 1.0 6.0 0.00 0.00 0.00 29 1020.4
20190321194910 74 87 2.0 9.0 0.00 0.00 0.00 29 1020.4
20190321194410 74 318 3.0 9.0 0.00 0.00 0.00 26 1020.4
20190321193910 74 351 2.0 6.0 0.00 0.00 0.00 27 1020.5
20190321193416 74 75 1.0 5.0 0.00 0.00 0.00 26 1020.5
20190321192915 74 327 2.0 5.0 0.00 0.00 0.00 33 1020.6
20190321192409 73 119 2.0 5.0 0.00 0.00 0.00 31 1020.6
20190321191923 74 262 1.0 5.0 0.00 0.00 0.00 28 1020.7
20190321191410 74 349 1.0 5.0 0.00 0.00 0.00 29 1020.7
20190321190910 74 335 1.0 5.0 0.00 0.00 0.00 30 1020.9
20190321190409 74 100 1.0 4.0 0.00 0.00 0.00 30 1020.9
20190321185910 73 204 1.0 6.0 0.00 0.00 0.00 33 1021.2
20190321185410 73 351 2.0 6.0 0.00 0.00 0.00 32 1021.3
20190321184920 73 342 2.0 6.0 0.00 0.00 0.00 33 1021.4
20190321184442 72 82 2.0 7.0 0.00 0.00 0.00 32 1021.5
20190321183912 72 282 2.0 7.0 0.00 0.00 0.00 34 1021.5
20190321183452 72 210 1.0 7.0 0.00 0.00 0.00 31 1021.7
20190321182913 72 344 1.0 7.0 0.00 0.00 0.00 32 1021.8
20190321182405 73 58 2.0 8.0 0.00 0.00 0.00 30 1021.9
20190321181904 73 23 2.0 8.0 0.00 0.00 0.00 33 1022.0
20190321181416 73 60 2.0 7.0 0.00 0.00 0.00 32 1022.0
20190321180903 73 320 1.0 6.0 0.00 0.00 0.00 37 1022.2
20190321180402 73 67 1.0 5.0 0.00 0.00 0.00 34 1022.2
20190321175916 73 312 2.0 7.0 0.00 0.00 0.00 30 1022.3
20190321175412 73 117 2.0 7.0 0.00 0.00 0.00 35 1022.4
20190321174903 73 37 0.0 3.0 0.00 0.00 0.00 34 1022.5
20190321174401 73 113 1.0 4.0 0.00 0.00 0.00 35 1022.5
20190321173921 72 125 2.0 7.0 0.00 0.00 0.00 35 1022.6
20190321173403 72 357 2.0 7.0 0.00 0.00 0.00 36 1022.6
20190321172912 72 39 1.0 6.0 0.00 0.00 0.00 33 1022.7
20190321172401 72 85 1.0 4.0 0.00 0.00 0.00 38 1022.7
20190321171901 71 108 1.0 4.0 0.00 0.00 0.00 38 1022.8
20190321171409 71 110 2.0 6.0 0.00 0.00 0.00 40 1022.9
20190321170908 70 237 2.0 6.0 0.00 0.00 0.00 38 1022.9
20190321170402 71 330 1.0 6.0 0.00 0.00 0.00 38 1023.0
20190321165902 71 115 1.0 5.0 0.00 0.00 0.00 38 1023.0
20190321165402 70 25 2.0 6.0 0.00 0.00 0.00 41 1023.1
20190321164909 70 20 1.0 6.0 0.00 0.00 0.00 45 1023.1
20190321164402 70 295 1.0 4.0 0.00 0.00 0.00 43 1023.2
20190321163901 69 241 1.0 4.0 0.00 0.00 0.00 47 1023.3
20190321163403 69 20 1.0 4.0 0.00 0.00 0.00 45 1023.3
20190321162905 69 47 1.0 5.0 0.00 0.00 0.00 44 1023.3
20190321162359 68 325 2.0 6.0 0.00 0.00 0.00 44 1023.3
20190321161901 68 246 2.0 6.0 0.00 0.00 0.00 49 1023.4
20190321161403 68 308 2.0 6.0 0.00 0.00 0.00 47 1023.4
20190321160907 67 324 1.0 5.0 0.00 0.00 0.00 50 1023.4
20190321160406 67 295 1.0 5.0 0.00 0.00 0.00 49 1023.3
20190321155859 67 308 1.0 5.0 0.00 0.00 0.00 52 1023.4
20190321155405 67 300 1.0 4.0 0.00 0.00 0.00 52 1023.4
20190321154904 67 319 1.0 4.0 0.00 0.00 0.00 53 1023.4
20190321154400 66 283 1.0 5.0 0.00 0.00 0.00 56 1023.4
20190321153902 66 309 1.0 5.0 0.00 0.00 0.00 54 1023.4
20190321153400 66 326 1.0 5.0 0.00 0.00 0.00 54 1023.4
20190321152857 67 320 0.0 3.0 0.00 0.00 0.00 53 1023.3
20190321152359 68 276 0.0 1.0 0.00 0.00 0.00 55 1023.3
20190321151859 67 223 0.0 1.0 0.00 0.00 0.00 56 1023.2
20190321151401 66 228 0.0 1.0 0.00 0.00 0.00 60 1023.3
20190321150905 65 262 0.0 1.0 0.00 0.00 0.00 57 1023.3
20190321150400 65 276 0.0 1.0 0.00 0.00 0.00 59 1023.3
20190321145858 65 296 0.0 1.0 0.00 0.00 0.00 62 1023.3
20190321145402 65 257 0.0 1.0 0.00 0.00 0.00 62 1023.4
20190321144859 65 274 0.0 1.0 0.00 0.00 0.00 64 1023.4
20190321144359 65 147 0.0 2.0 0.00 0.00 0.00 65 1023.5
20190321143855 64 158 0.0 2.0 0.00 0.00 0.00 69 1023.4
20190321143355 64 170 0.0 2.0 0.00 0.00 0.00 68 1023.3
20190321142857 63 149 0.0 2.0 0.00 0.00 0.00 71 1023.2
20190321142405 62 202 0.0 0.0 0.00 0.00 0.00 71 1023.2
20190321141855 63 258 0.0 0.0 0.00 0.00 0.00 73 1023.1
20190321141401 62 232 0.0 0.0 0.00 0.00 0.00 82 1023.0
20190321140903 60 232 0.0 0.0 0.00 0.00 0.00 83 1023.0
20190321140356 59 232 0.0 0.0 0.00 0.00 0.00 83 1022.9
20190321135857 59 232 0.0 0.0 0.00 0.00 0.00 85 1022.8
20190321135400 58 232 0.0 0.0 0.00 0.00 0.00 85 1022.8
20190321134854 58 232 0.0 0.0 0.00 0.00 0.00 85 1022.7
20190321134358 58 232 0.0 0.0 0.00 0.00 0.00 85 1022.7
20190321133854 57 232 0.0 0.0 0.00 0.00 0.00 87 1022.6
20190321133355 56 232 0.0 0.0 0.00 0.00 0.00 87 1022.5
20190321132857 56 232 0.0 0.0 0.00 0.00 0.00 86 1022.4
20190321132353 55 232 0.0 0.0 0.00 0.00 0.00 87 1022.4
20190321131851 55 232 0.0 0.0 0.00 0.00 0.00 88 1022.3
20190321131352 54 232 0.0 0.0 0.00 0.00 0.00 88 1022.1
20190321130851 54 232 0.0 1.0 0.00 0.00 0.00 88 1022.1
20190321130355 53 232 0.0 1.0 0.00 0.00 0.00 88 1022.1
20190321125851 53 232 0.0 1.0 0.00 0.00 0.00 89 1022.1
20190321125349 53 232 0.0 0.0 0.00 0.00 0.00 89 1022.1
20190321124849 52 232 0.0 0.0 0.00 0.00 0.00 89 1022.1
20190321124354 52 232 0.0 0.0 0.00 0.00 0.00 89 1022.1
20190321123851 51 232 0.0 0.0 0.00 0.00 0.00 89 1022.1
20190321123355 51 232 0.0 0.0 0.00 0.00 0.00 89 1022.1
20190321122849 51 232 0.0 0.0 0.00 0.00 0.00 89 1022.1
20190321122351 51 232 0.0 0.0 0.00 0.00 0.00 89 1022.1
20190321121850 51 232 0.0 0.0 0.00 0.00 0.00 89 1022.1
20190321121352 52 232 0.0 0.0 0.00 0.00 0.00 88 1022.1
20190321120855 52 232 0.0 0.0 0.00 0.00 0.00 88 1022.0
20190321120349 52 232 0.0 0.0 0.00 0.00 0.00 88 1022.0
20190321115845 52 232 0.0 0.0 0.00 0.00 0.00 88 1022.1